KEFLAVIK_(CIV/MIL) current weather conditions

sailwx.info

Last reported at 2020-Feb-17 03:50 UTC.
Time now 2020-Feb-18 13:16 UTC

Location: N 63°58' W 022°36'.
View on Google Maps.

See reports from other nearby stations

  
Tides and Currents Weather Stations Pressure Air Temp Water Temp Dewpoint Dewpoint Depression Visibility Wind Speed Wind Dir Waves Ship Positions
date/time (UTC)wind fromknots sea level pressurealtimeterstation pressurevisibilityair tempwater tempwave heightnotes
2020-Feb-18 12:00 070 5 5.4 2.0
2020-Feb-18 11:30 020 4 5.4 1.0
2020-Feb-18 11:00 010 2 5.4 1.0
2020-Feb-18 10:30 040 5 5.4 1.0
2020-Feb-18 10:00 040 6 5.4-0.0
2020-Feb-18 09:30 050 6 5.4-0.0
2020-Feb-18 09:00 030 6 5.4-0.0
2020-Feb-18 08:30 020 5 5.4-0.0
2020-Feb-18 08:00 030 6 5.4-0.0
2020-Feb-18 07:30 030 6 5.4-0.0
2020-Feb-18 07:00 030 6 5.4-1.0
2020-Feb-18 06:30 030 6 5.4-0.0
2020-Feb-18 06:00 030 6 5.4-0.0
2020-Feb-18 05:30 030 8 5.4-1.0
2020-Feb-18 05:00 040 9 5.4-0.0
2020-Feb-18 04:30 050 9 5.4-0.0
2020-Feb-18 04:00 040 9 5.4-0.0
2020-Feb-18 03:30 030 13 5.4 1.0
2020-Feb-18 03:00 040 13 5.4 1.0
2020-Feb-18 02:30 030 11 5.4 1.0
2020-Feb-18 02:00 040 11 5.4 1.0
2020-Feb-18 01:30 030 11 5.4-0.0
2020-Feb-18 01:00 040 11 5.4-0.0
2020-Feb-18 00:30 030 9 5.4-0.0
2020-Feb-18 00:00 040 11 5.4-0.0
2020-Feb-17 23:30 040 11 5.4-0.0
2020-Feb-17 23:00 040 8 5.4 1.0
2020-Feb-17 22:30 030 8 5.4 1.0
2020-Feb-17 22:00 040 8 5.4 1.0
2020-Feb-17 21:30 050 4 5.4-0.0
2020-Feb-17 21:00 020 6 5.4-0.0
2020-Feb-17 20:30 040 7 5.4-0.0
2020-Feb-17 20:00 030 8 5.4 1.0
2020-Feb-17 19:30 060 7 5.4 1.0
2020-Feb-17 19:00 040 13 5.4 1.0
2020-Feb-17 18:30 040 15 5.4 1.0
2020-Feb-17 18:00 040 18 5.4 1.0
2020-Feb-17 17:30 040 15 5.4 2.0
2020-Feb-17 17:00 040 17 5.4 2.0
2020-Feb-17 16:30 040 15 5.4 2.0
2020-Feb-17 16:00 040 14 5.4 2.0
2020-Feb-17 15:30 040 13 5.4 3.0
2020-Feb-17 15:00 020 15 5.4 3.0
2020-Feb-17 14:30 030 15 5.4 3.0
2020-Feb-17 14:00 020 15 5.4 3.0
2020-Feb-17 13:30 030 19 5.4 3.0
2020-Feb-17 13:00 030 20 5.4 3.0
2020-Feb-17 12:30 030 17 5.4 3.0
2020-Feb-17 12:00 030 15 5.4 3.0
2020-Feb-17 11:30 020 13 5.4 3.0
2020-Feb-17 11:00 020 13 5.4 3.0
2020-Feb-17 10:30 020 15 5.4 3.0
2020-Feb-17 10:00 350 7 5.4 3.0
2020-Feb-17 09:30 030 17 5.4 3.0
2020-Feb-17 09:00 020 13 5.4 3.0
2020-Feb-17 08:30 030 19 5.4 3.0
2020-Feb-17 08:00 360 13 5.4 3.0
2020-Feb-17 07:30 350 17 5.4 2.0
2020-Feb-17 07:00 340 20 5.4 2.0 Showers in the vicinity.
2020-Feb-17 06:30 330 27 5.4 2.0 Showers in the vicinity.
2020-Feb-17 06:00 340 27 5.4 2.0
2020-Feb-17 05:30 340 26 gusting 35 5.4 1.0
2020-Feb-17 05:00 340 27 gusting 39 5.4 1.0
2020-Feb-17 04:30 340 26 5.4 1.0
2020-Feb-17 04:00 350 28 5.4 1.0
2020-Feb-17 03:30 350 28 5.4 1.0
2020-Feb-17 03:00 360 27 gusting 38 5.4 1.0
2020-Feb-17 02:30 360 20 5.4 1.0
2020-Feb-17 02:00 010 24 gusting 36 5.4 2.0
2020-Feb-17 01:30 010 24 5.4 2.0
2020-Feb-17 01:00 020 25 gusting 39 5.4 2.0
2020-Feb-17 00:30 010 25 5.4 2.0
2020-Feb-17 00:00 010 24 gusting 34 5.4 2.0
2020-Feb-16 23:30 020 28 5.4 2.0
2020-Feb-16 23:00 010 20 5.4 2.0
2020-Feb-16 22:30 020 19 5.4 2.0
2020-Feb-16 22:00 010 19 5.4 2.0
2020-Feb-16 21:30 360 21 5.4 2.0
2020-Feb-16 21:00 360 20 5.4 2.0
2020-Feb-16 20:30 360 18 5.4 2.0
2020-Feb-16 20:00 360 20 5.4 2.0
2020-Feb-16 19:30 350 19 5.4 2.0
2020-Feb-16 19:00 340 14 5.4 2.0
2020-Feb-16 18:30 360 13 5.4 2.0
2020-Feb-16 18:00 360 20 5.4 2.0
2020-Feb-16 17:31 350 14 5.4 2.0
2020-Feb-16 17:00 360 14 5.4 3.0
2020-Feb-16 16:30 350 14 gusting 25 5.4 3.0
2020-Feb-16 16:00 360 14 5.4 3.0
2020-Feb-16 15:30 010 13 5.4 3.0
2020-Feb-16 15:00 010 13 5.4 2.0
2020-Feb-16 14:30 360 13 5.4 3.0
2020-Feb-16 14:00 360 13 5.4 3.0
2020-Feb-16 13:30 010 13 5.4 3.0
2020-Feb-16 13:00 010 14 5.4 3.0